User: anonymous   Login
Location: Unnamed
(51.8936°N, 11.0665°E)
Time: 16:37:59
(UTC+02:00)
Language:

VELOX 1 - Orbit

View from above orbital plane
View from above orbital plane
View from above satellite
View from above satellite

Ground track
Ground track

The orbit data is extracted from the following two-line orbital elements,

1 40057U 14034E   21268.30775620  .00000463  00000-0  71477-4 0  9990
2 40057  98.3402  65.8943 0012125  98.0209 262.2379 14.78276501390293
Epoch (UTC): 25 September 2021 07:23:10
Eccentricity: 0.0012125
inclination: 98.3402°
perigee height: 626 km
apogee height: 643 km
right ascension of ascending node: 65.8943°
argument of perigee: 98.0209°
revolutions per day: 14.78276501
mean anomaly at epoch: 262.2379°
orbit number at epoch: 39029

The dashed part of the orbit path shows where the satellite is in the earth's shadow,  

DLR